{"data":{"norad_id":58714,"epoch":"2026-09-20T16:32:30.178752Z","epoch_age_seconds":133435,"freshness":"FRESH","line1":"1 58714U 24002K   26263.68923818  .00000258  00000+0  18755-4 0  9991","line2":"2 58714  53.1608  42.5558 0000913  75.9571 284.1533 15.34391738151890","mean_motion":15.34391738,"eccentricity":9.13e-5,"inclination_deg":53.1608,"raan_deg":42.5558,"arg_perigee_deg":75.9571,"mean_anomaly_deg":284.1533,"bstar":1.8755e-5,"rev_number":15189,"period_min":93.848263408728,"perigee_km":462.10322576649,"apogee_km":463.35236767837,"semimajor_km":6840.8647967224,"source":"CELESTRAK","updated_at":"2026-09-21T09:00:33.948781Z"}}